Simultaneous Nadir Overpasses (SNOs) Predictions

Prediction of SNOs between METOP-B and NOAA-19 Satellite Orbit:

Table of predicted SNOs for the next 14.0 days since TLE Epoch: 7/11/2014
Index Date (METOP-B) Time (METOP-B) Lat,Lon (METOP-B) SZA (METOP-B ) Date (NOAA-19) Time (NOAA-19) Lat,Lon (NOAA-19) SZA (NOAA-19 ) Distance(km) Time Diff (sec)
1 07/14/2014 14:21:15 -74.14, 139.85 127.47 07/14/2014 14:20:02 -74.14, 139.74 127.46 3.57 73
2 07/14/2014 15:11:56 74.09, -52.94 52.49 07/14/2014 15:11:01 74.10, -52.92 52.52 1.78 55
3 07/14/2014 16:02:37 -74.07, 114.33 127.52 07/14/2014 16:02:03 -74.06, 114.42 127.53 2.64 34
4 07/14/2014 16:53:17 74.06, -78.34 52.48 07/14/2014 16:53:03 74.08, -78.37 52.50 1.68 14
5 07/14/2014 17:43:59 -74.04, 88.94 127.53 07/14/2014 17:44:06 -74.03, 88.97 127.54 1.55 7
6 07/14/2014 18:34:39 74.04,-103.74 52.47 07/14/2014 18:35:06 74.05,-103.82 52.48 2.60 27
7 07/14/2014 19:25:21 -74.02, 63.54 127.54 07/14/2014 19:26:09 -74.01, 63.53 127.56 1.47 48
8 07/14/2014 20:16:02 73.97,-129.26 52.42 07/14/2014 20:17:08 73.98,-129.14 52.41 3.84 66
9 07/14/2014 21:06:54 -73.45, 36.86 128.04 07/14/2014 21:08:02 -73.49, 39.27 128.10 76.54 68
10 07/24/2014 20:08:44 74.38,-126.46 54.64 07/24/2014 20:07:32 74.39,-127.67 54.71 36.04 72
11 07/24/2014 20:59:31 -74.14, 40.26 125.58 07/24/2014 20:58:33 -74.15, 40.18 125.55 2.69 58
12 07/24/2014 21:50:11 74.11,-152.49 54.41 07/24/2014 21:49:30 74.12,-152.47 54.43 1.71 41
13 07/24/2014 22:40:53 -74.11, 14.86 125.58 07/24/2014 22:40:36 -74.12, 14.74 125.56 3.82 17
14 07/24/2014 23:31:33 74.08,-177.89 54.40 07/24/2014 23:31:33 74.09,-177.92 54.41 1.80 0
15 07/25/2014 00:22:16 -74.04, -10.66 125.63 07/25/2014 00:22:38 -74.05, -10.58 125.63 2.69 22
16 07/25/2014 01:12:55 74.06, 156.71 54.39 07/25/2014 01:13:36 74.07, 156.63 54.40 2.77 41
17 07/25/2014 02:03:38 -74.02, -36.06 125.64 07/25/2014 02:04:41 -74.02, -36.03 125.64 1.33 63
18 07/25/2014 02:54:23 73.73, 130.60 54.12 07/25/2014 02:55:34 73.80, 131.80 54.12 38.03 71




NCC Satellite Simultaneous Nadir Overpasses (
